sat.trackr.live / text

‹ back to catalog

STARLINK-35355

NORAD 66448 · 2025-259AC

PAYLOAD ACTIVE UNKNOWN

§ Identity

Operator
Country
US
Launch date
2025-11-11
Launch site
AFETR
Launch vehicle
Mass (kg)
RCS (m²)

Purposes: comms

External: N2YO · Heavens-Above · Gunter

§ Orbital elements

Epoch: 2026-05-24T15:29:33.005760Z

Period
94.27 min
Inclination
42.9981°
Eccentricity
0.0001878
Mean motion
15.27598336 rev/d
Perigee alt
481.7 km
Apogee alt
484.3 km
Semi-major
6,861.1 km
B*
6.3114e-4
RAAN
205.7357°
Arg perigee
273.8721°
Mean anomaly
86.1915°
Rev number
3,110

§ Raw data

STARLINK-353551 66448U 25259AC  26144.64552090  .00017156  00000+0  63114-3 0  99962 66448  42.9981 205.7357 0001878 273.8721  86.1915 15.27598336 31100

JSON: /api/v1/satellites/66448 · /tle

For live sub-satellite position, see the globe view (requires WebGL).

§ Visibility from observer

Set your observer location to see the next 7 days of passes ≥ 10°. The values pass through the URL so the page stays shareable.

No JS? Fill the form by hand. The geolocation button needs JavaScript.